Simultaneous Nadir Overpasses (SNOs) Predictions

Prediction of SNOs between METOP-C and LANDSAT-8 Satellite Orbit:

Table of predicted SNOs for the next 14.0 days since TLE Epoch: 9/26/2025
Index Date (METOP-C) Time (METOP-C) Lat,Lon (METOP-C) SZA (METOP-C ) Date (LANDSAT-8) Time (LANDSAT-8) Lat,Lon (LANDSAT-8) SZA (LANDSAT-8 ) Distance(km) Time Diff (sec)
1 09/29/2025 13:04:40 -81.11,-156.45 93.99 09/29/2025 13:05:23 -81.11,-156.50 93.98 0.81 43
2 09/29/2025 13:55:20 81.13, 11.26 86.07 09/29/2025 13:54:49 81.12, 11.22 86.05 0.95 31
3 10/02/2025 08:39:01 -81.10, -90.31 92.92 10/02/2025 08:39:36 -81.10, -90.22 92.90 1.49 35
4 10/02/2025 09:29:40 81.13, 77.76 87.20 10/02/2025 09:29:01 81.13, 77.83 87.19 1.23 39
5 10/05/2025 04:13:21 -81.12, -23.52 91.77 10/05/2025 04:13:48 -81.12, -23.51 91.75 0.48 27
6 10/05/2025 05:04:00 81.14, 144.54 88.34 10/05/2025 05:03:13 81.14, 144.52 88.32 0.60 47
7 10/07/2025 23:47:42 -81.11, 42.80 90.69 10/07/2025 23:48:00 -81.12, 42.91 90.66 1.99 18
8 10/08/2025 00:38:21 81.14,-149.17 89.42 10/08/2025 00:37:25 81.14,-149.08 89.41 1.56 56
9 10/10/2025 19:22:01 -81.12, 109.40 89.58 10/10/2025 19:22:10 -81.12, 109.41 89.58 0.31 9



Historial Predications of SNOs between METOP-C and LANDSAT-8
